Regional Weather Roundup
Issued by NWS

Home | Current Version | Previous Version | Graphics & Text | Print | Product List | Glossary On
Versions: 1 2 3 4 5 6 7 8 9 10 11 12 13 14 15 16 17 18 19 20 21 22 23 24 25 26 27 28 29 30 31 32 33 34 35 36 37 38 39 40 41 42 43 44 45 46 47 48 49 50
000
ASUS43 KMKX 012011
RWRWI

WISCONSIN REGIONAL WEATHER ROUNDUP
NATIONAL WEATHER SERVICE MILWAUKEE/SULLIVAN WI
300 PM CDT WED APR 01 2015

NOTE: "FAIR" INDICATES FEW OR NO CLOUDS BELOW 12,000 FEET WITH NO
SIGNIFICANT WEATHER AND/OR OBSTRUCTIONS TO VISIBILITY.

WIZ001-002-006>008-014>016-023>028-012100-
NORTHWEST WISCONSIN

CITY           SKY/WX    TMP DP  RH WIND       PRES   REMARKS
SUPERIOR ARPT  CLOUDY    36  34  93 NE10G18   29.62F WCI  28
ASHLAND        CLOUDY    62  34  35 SW15G21   29.63S
HAYWARD        CLOUDY    63  34  33 S16       29.62F
SIREN          CLOUDY    62  44  51 S13       29.56F
CUMBERLAND     PTSUNNY   61  36  39 S5        29.62S
RICE LAKE      PTSUNNY   65  34  31 SE12      29.63F
CHETEK         PTSUNNY   67  37  33 SE10G17   29.63F
LADYSMITH      CLOUDY    65  36  33 SE16G22   29.68F
EAU CLAIRE     MOSUNNY   77  36  22 S16G25    29.64F
MENOMONIE      MOSUNNY   77  33  20 S24G33    29.63F
NEW RICHMOND   CLOUDY    71  37  28 S22G33    29.59S
OSCEOLA        LGT RAIN  69  40  34 S22G28    29.58F
$$

WIZ003>005-009-010-017-018-012100-
NORTH CENTRAL WISCONSIN

CITY           SKY/WX    TMP DP  RH WIND       PRES   REMARKS
MANITOWISH WTR CLOUDY    56  33  42 S18G29    29.68F
ARBOR VITAE    PTSUNNY   58  34  39 S18G26    29.70F
WOODRUFF       PTSUNNY   58  34  39 S18G26    29.70F
RHINELANDER    PTSUNNY   58  33  39 S15G25    29.74F
EAGLE RIVER    CLOUDY    58  28  32 S16G24    29.72F
LAND O LAKES   PTSUNNY   55  30  37 S15G23    29.72F
PHILLIPS       CLOUDY    62  37  38 S25G32    29.68F
TOMAHAWK       MOSUNNY   63  33  33 S9G21     29.73F
MEDFORD        PTSUNNY   63  39  41 S21       29.72F
MERRILL        MOSUNNY   63  36  35 SE12G21   29.75F
$$

WIZ029-030-035-036-043>047-012100-
CENTRAL WISCONSIN

CITY           SKY/WX    TMP DP  RH WIND       PRES   REMARKS
WAUSAU         MOSUNNY   64  35  34 S15G26    29.74F
MOSINEE        SUNNY     64  34  32 S22G28    29.78F
MARSHFIELD     PTSUNNY   69  36  29 S18G29    29.73F
STEVENS POINT  MOSUNNY   65  35  33 S20G25    29.78F
WAUPACA        MOSUNNY   70  34  25 S13G23    29.81F
WAUTOMA        MOSUNNY   72  34  24 S16G22    29.80F
WISC RAPIDS    MOSUNNY   72  30  21 S16G24    29.77F
CAMP DOUGLAS   MOSUNNY   75  37  25 S18G25    29.74F
$$

WIZ011>013-019>022-031-037>040-048>050-012100-
NORTHEAST WISCONSIN

CITY           SKY/WX    TMP DP  RH WIND       PRES   REMARKS
ANTIGO         MOSUNNY   56  38  51 S17G28    29.80F
SHAWANO        SUNNY     61  38  42 SE15G22   29.84F
OCONTO         MOSUNNY   53  34  49 SE12G20   29.87F
STURGEON BAY   PTSUNNY   45  36  70 SE21      29.92F
GREEN BAY      SUNNY     57  38  48 SE17      29.87F
MANITOWOC      SUNNY     45  36  70 S17G24    29.93F
APPLETON       MOSUNNY   61  34  36 SE14      29.86
CLINTONVILLE   SUNNY     61  34  36 S14G22    29.84F
OSHKOSH        SUNNY     64  38  38 SE16G25   29.84F
$$

WIZ032>034-041-042-053>061-012100-
SOUTHWEST WISCONSIN

CITY           SKY/WX    TMP DP  RH WIND       PRES   REMARKS
LA CROSSE      SUNNY     79  34  19 S21G33    29.68F
SPARTA         SUNNY     76  31  18 S18G32    29.73F
VIROQUA        SUNNY     75  33  21 S20G31    29.75F
BOSCOBEL       SUNNY     81  34  18 S15G30    29.76F
PRAIRIE DU CHI SUNNY     79  31  17 S18G30    29.74F
PLATTEVILLE    SUNNY     77  35  21 S23G33    29.82F
$$

WIZ056-057-062-063-064-067-068-012100-
SOUTH CENTRAL WISCONSIN

CITY           SKY/WX    TMP DP  RH WIND       PRES   REMARKS
REEDSBURG      SUNNY     74  38  26 S22G29    29.79F
BARABOO/DELLS  SUNNY     73  33  23 S22G28    29.80F
LONE ROCK      SUNNY     77  35  21 S17G35    29.79F
MINERAL POINT  SUNNY     77  28  16 S24G30    29.81F
MADISON        MOSUNNY   73  37  27 S20G25    29.84F
MIDDLETON      SUNNY     76  29  18 S20G26    29.83F
WATERTOWN      SUNNY     71  39  30 S20G25    29.86F
MONROE         SUNNY     73  37  27 S23G29    29.85F
JANESVILLE     SUNNY     75  34  22 S15G28    29.87F
$$

WIZ051-052-058>065-066-070>072-012100-
SOUTHEAST WISCONSIN

CITY           SKY/WX    TMP DP  RH WIND       PRES   REMARKS
MILWAUKEE      MOSUNNY   55  36  48 SE15      29.94F HAZE
WAUKESHA       MOSUNNY   64  37  36 SE12      29.91F
MILWAUKEE/TIMM SUNNY     57  34  41 SE13      29.93F
RACINE         SUNNY     53  36  52 S16       29.95F
BURLINGTON     SUNNY     72  35  26 S14G24    29.90F
KENOSHA        SUNNY     62  39  42 SE17      29.93F
FOND DU LAC    SUNNY     65  38  36 SE20      29.85F
SHEBOYGAN      SUNNY     50  37  61 S14G22    29.93F
WEST BEND      SUNNY     55  34  44 SE12      29.90F
JUNEAU         SUNNY     71  37  29 S20G29    29.87F
$$

LSZ147-162-012100-
LAKE SUPERIOR

STATION/POSITION TIME  TEMP    WIND        PRES    WAVE
                       AIR SEA DIR/SP/G            HT/PER
                 (UTC) (F)     (DEG/KT/KT) (MB)    (FT/S)
DEVILS ISLAND    2000   36      50/ 16/ 17 1003.1F
PORT WING        1940   35      20/ 14/ 22 1003.4F
SAXON HARBOR     1921   64     180/ 12/ 22 1002.0F
$$

LMZ867-665-643>646-012100-
LAKE MICHIGAN

STATION/POSITION TIME  TEMP    WIND        PRES    WAVE
                       AIR SEA DIR/SP/G            HT/PER
                 (UTC) (F)     (DEG/KT/KT) (MB)    (FT/S)
NORTHPORT PIER   2004   34     140/ 12/ 13 1013.2F
SISTER BAY       1817   50     180/ 10/ 16   N/A
KEWAUNEE LAKESHO 1900   38     150/  7/  9 1014.2F
SHEBOYGAN LAKESH 2000   37     170/ 10/ 12 1014.6F
PORT WASHINGTON  1940   41     170/  5/  7 1014.6F
MILWAUKEE LAKESH 1900   38     110/  5/  7   N/A
KENOSHA   LAKESH 2000   42     160/  6/  8 1013.9F
$$

TC  - TEMPERATURE IN CELSIUS
VSB - VISIBILITY IN STATUTE MILES
WCI - WIND CHILL INDEX
HX  - HEAT INDEX



USA.gov is the U.S. government's official web portal to all federal, state and local government web resources and services.